Regional Weather Roundup
Issued by NWS Cleveland, OH

Home | Current Version | Previous Version | Graphics & Text | Print | Product List | Glossary On
Versions: 1 2 3 4 5 6 7 8 9 10 11 12 13 14 15 16 17 18 19 20 21 22 23 24 25 26 27 28 29 30 31 32 33 34 35 36 37 38 39 40 41 42 43 44 45 46 47 48 49 50
000
ASUS41 KCLE 032300
RWRCLE
OHIO REGIONAL WEATHER ROUNDUP
NATIONAL WEATHER SERVICE WILMINGTON, OH
700 PM EDT SUN MAY 03 2015

NOTE: "FAIR" INDICATES FEW OR NO CLOUDS BELOW 12,000 FEET WITH NO
SIGNIFICANT WEATHER AND/OR OBSTRUCTIONS TO VISIBILITY.

OHZ001>008-015>018-024>027-034-035-043-044-040000-
   NORTHWEST OHIO

CITY           SKY/WX    TMP DP  RH WIND       PRES   REMARKS
DEFIANCE       MOSUNNY   77  44  30 SW13G20   30.01S
FINDLAY        MOSUNNY   75  46  35 SW12      30.03S
TOLEDO EXPRESS MOSUNNY   76  43  30 SW12G21   30.01S
TOLEDO EXEC    MOSUNNY   77  44  30 SW14      30.02S
LIMA           PTSUNNY   75  46  35 SW10      30.04S
$$

OHZ009>014-019>023-028>033-038-089-040000-
   NORTHEAST OHIO

CITY           SKY/WX    TMP DP  RH WIND       PRES   REMARKS
CLE-HOPKINS    MOSUNNY   75  44  33 SW12      30.06S
CLE-LAKEFRONT  PTSUNNY   71  45  39 N5        30.03S
CUY CO. ARPT   MOSUNNY   75  43  31 NW7       30.06S
LORAIN-ELYRIA  MOSUNNY   75  44  33 SW12      30.05S
ASHTABULA      SUNNY     73  39  29 VRB6      30.07S
AKRON-CANTON   MOSUNNY   73  42  32 SW7       30.08S
WOOSTER        NOT AVBL
MANSFIELD      MOSUNNY   73  44  35 SW9       30.07S
YOUNGSTOWN     MOSUNNY   74  42  31 SW10      30.07S
$$

OHZ042-051>053-060>062-070>072-077>081-040000-
  SOUTHWEST OHIO

CITY           SKY/WX    TMP DP  RH WIND       PRES   REMARKS
CINC-COVINGTON MOSUNNY   74  47  38 S8        30.07S
CINC-LUNKEN    MOSUNNY   74  52  46 SW7       30.06S
HAMILTON       SUNNY     78  45  30 SW6       30.06F
DAYTON         NOT AVBL
WRIGHT-PAT AFB NOT AVBL
DAYTON GENERAL SUNNY     74  46  36 S8        30.06S
WILMINGTON     SUNNY     73  42  32 S9        30.08R
$$

OHZ036-037-039>041-045>050-054>059-063>069-073>076-082>088-040000-
  CENTRAL AND SOUTHEAST OHIO

CITY           SKY/WX    TMP DP  RH WIND       PRES   REMARKS
COLUMBUS       MOSUNNY   75  43  31 SW9       30.07S
OSU AIRPORT    MOSUNNY   73  44  35 S10       30.07S
BOLTON FIELD   SUNNY     75  46  35 SW14      30.08R
RICKENBACK AFB NOT AVBL
NEWARK         MOSUNNY   74  46  36 SW10      30.06F
MARION         MOSUNNY   75  41  29 SW13      30.06S
LANCASTER      PTSUNNY   75  43  31 S8        30.08S
ZANESVILLE     MOSUNNY   74  40  29 CALM      30.08S
NEW PHILLY     MOSUNNY   78  40  25 SW6       30.08S
$$



USA.gov is the U.S. government's official web portal to all federal, state and local government web resources and services.